Island Lake, Manitoba

5:27 PM CDT on April 25, 2018 (GMT -0500)
Island Lake

Weather History for CYIV - February, 2013

Change the Weather History Date:

Thursday, February 28, 2013

  Actual Average Record
Temperature  
Mean Temperature 0 °F -  
Max Temperature 14 °F 21 °F 35 °F (2004)
Min Temperature -13 °F -1 °F -31 °F (2014)
Degree Days  
Heating Degree Days 64    
Moisture  
Dew Point -5 °F    
Average Humidity 73    
Maximum Humidity 100    
Minimum Humidity 49    
Precipitation  
Precipitation 0.00 in 0.03 in - ()
Sea Level Pressure  
Sea Level Pressure 30.61 in    
Wind  
Wind Speed 3 mph ()    
Max Wind Speed 8 mph    
Max Gust Speed -    
Visibility 15.0 miles    
Events      
Averages and records for this station are not official NWS values.
T = Trace of Precipitation, MM = Missing Value Source: Averaged Metar Reports

Daily Weather History Graph

Daily Weather History Graph

Search for Another Location

Airport or City:

Astronomy

Feb. 28, 2013 Rise Set
Actual Time 7:08 AM CST 5:54 PM CST
Civil Twilight 6:32 AM CST 6:30 PM CST
Nautical Twilight 5:52 AM CST 7:10 PM CST
Astronomical Twilight 5:11 AM CST 7:52 PM CST
Moon 10:02 PM CST (2/28) 7:44 AM CST (2/28)
Length of Visible Light 11h 57m
Length of Day
10h 46m
Waning Gibbous, 90% of the Moon is Illuminated
Feb 28
Waning Gibbous
Mar 4
Last Quarter
Mar 11
New
Mar 19
First Quarter
Mar 27
Full

Hourly Weather History & Observations

Time (CST) Temp. Windchill Dew Point Humidity Pressure Visibility Wind Dir Wind Speed Gust Speed Precip Events Conditions
12:00 AM 0 °F - -3 °F 81% 30.58 in 15 mi Calm Calm - -  
12:00 AM -0.4 °F - -2.2 °F 92% 30.58 in 15.0 mi Calm Calm - N/A   Clear
1:00 AM -2.2 °F -10.4 °F -4.0 °F 92% 30.58 in 15.0 mi East 3.5 mph - N/A   Clear
2:00 AM -4.0 °F - -4.0 °F 100% 30.59 in 15.0 mi Calm Calm - N/A   Clear
3:00 AM -5.8 °F - -5.8 °F 100% 30.60 in 15.0 mi NE 2.3 mph - N/A   Clear
4:00 AM -7.6 °F -16.5 °F -9.4 °F 92% 30.61 in 15.0 mi NE 3.5 mph - N/A   Clear
5:00 AM -11.2 °F - -13.0 °F 92% 30.61 in 15.0 mi East 2.3 mph - N/A   Clear
6:00 AM -10 °F - -12 °F 84% 30.61 in 15 mi East 2.3 mph - -  
6:00 AM -9.4 °F - -13.0 °F 84% 30.61 in 15.0 mi East 2.3 mph - N/A   Clear
7:00 AM -11.2 °F - -20.2 °F 64% 30.62 in 15.0 mi Calm Calm - N/A   Clear
8:00 AM -9.4 °F - -16.6 °F 71% 30.63 in 15.0 mi East 2.3 mph - N/A   Clear
9:00 AM -5.8 °F -14.5 °F -11.2 °F 77% 30.64 in 15.0 mi SSE 3.5 mph - N/A   Scattered Clouds
10:00 AM -0.4 °F -12.0 °F -7.6 °F 72% 30.65 in 15.0 mi SSE 5.8 mph - N/A   Scattered Clouds
12:00 PM 6 °F - -2 °F 58% 30.65 in 15 mi SSE 6.9 mph - -   Overcast
12:00 PM 6.8 °F -4.8 °F -2.2 °F 67% 30.65 in 15.0 mi SSE 6.9 mph - N/A   Overcast
1:00 PM 8.6 °F -3.7 °F -0.4 °F 67% 30.63 in 15.0 mi SSE 8.1 mph - N/A   Overcast
2:00 PM 12.2 °F 1.7 °F 1.4 °F 62% 30.62 in 15.0 mi SSE 6.9 mph - N/A   Overcast
3:00 PM 12.2 °F 6.1 °F 1.4 °F 62% 30.60 in 15.0 mi ESE 3.5 mph - N/A   Overcast
4:00 PM 14.0 °F 5.1 °F 3.2 °F 62% 30.60 in 15.0 mi East 5.8 mph - N/A   Overcast
5:00 PM 14.0 °F 3.9 °F 1.4 °F 57% 30.61 in 15.0 mi ENE 6.9 mph - N/A   Overcast
6:00 PM 11 °F - 0 °F 49% 30.62 in 15 mi East 4.6 mph - -   Overcast
6:00 PM 10.4 °F 2.2 °F 1.4 °F 67% 30.62 in 15.0 mi East 4.6 mph - N/A   Overcast
7:00 PM 8.6 °F -1.3 °F -2.2 °F 62% 30.62 in 15.0 mi East 5.8 mph - N/A   Overcast
8:00 PM 6.8 °F -0.1 °F -2.2 °F 67% 30.61 in 15.0 mi East 3.5 mph - N/A   Mostly Cloudy
9:00 PM 6.8 °F -4.8 °F -2.2 °F 67% 30.61 in 15.0 mi ESE 6.9 mph - N/A   Mostly Cloudy
10:00 PM 5.0 °F -6.9 °F -4.0 °F 66% 30.61 in 15.0 mi ESE 6.9 mph - N/A   Mostly Cloudy
11:00 PM 5.0 °F -8.1 °F -5.8 °F 61% 30.62 in 15.0 mi SE 8.1 mph - N/A   Mostly Cloudy